EW4691 Weather Reports


time (UTC)temp
C
wind
direction
speed
KPH
gust
KPH
rain 1hr
cm
rain 24hr
cm
rain mn
cm
humidity
%
barometer
mb
20260831040059 22 36 3.2 9.7 0.00 0.00 0.00 64 1027.5
20260831034540 23 65 1.6 8.0 0.00 0.00 0.00 64 1027.6
20260831033022 23 9 3.2 14.5 0.00 0.00 0.00 64 1027.7
20260831031603 23 42 4.8 11.3 0.00 0.00 0.00 62 1027.9
20260831031502 23 57 4.8 11.3 0.00 0.00 0.00 62 1027.9
20260831030022 23 44 3.2 9.7 0.00 0.00 0.00 62 1028.2
20260831024622 22 32 4.8 11.3 0.00 0.00 0.00 63 1028.3
20260831024502 22 39 4.8 9.7 0.00 0.00 0.00 64 1028.3
20260831023050 22 26 4.8 12.9 0.00 0.00 0.00 65 1028.5
20260831021532 22 260 3.2 8.0 0.00 0.00 0.00 69 1028.8
20260831020107 22 269 1.6 6.4 0.00 0.00 0.00 65 1029.1
20260831014556 22 49 1.6 8.0 0.00 0.00 0.00 64 1029.4
20260831013017 22 50 1.6 9.7 0.00 0.00 0.00 59 1029.6
20260831011607 21 38 1.6 9.7 0.00 0.00 0.00 58 1029.8
20260831010029 21 344 8.0 12.9 0.00 0.00 0.00 59 1030.1
20260831004556 21 22 4.8 9.7 0.00 0.00 0.00 62 1030.1
20260831003037 20 324 1.6 9.7 0.00 0.00 0.00 65 1030.1
20260831001533 20 325 3.2 9.7 0.00 0.00 0.00 66 1030.1
20260831000043 19 283 3.2 6.4 0.00 0.00 0.00 68 1030.1
20260830234536 18 325 1.6 4.8 0.00 0.00 0.00 70 1030.1
20260830233056 17 294 3.2 8.0 0.00 0.00 0.00 70 1030.2
20260830231532 16 331 1.6 8.0 0.00 0.00 0.00 75 1030.2
20260830230055 15 350 1.6 6.4 0.00 0.00 0.00 81 1030.2
20260830224533 13 333 1.6 6.4 0.00 0.00 0.00 85 1030.2
20260830223016 12 287 1.6 8.0 0.00 0.00 0.00 88 1030.3
20260830221544 12 325 3.2 14.5 0.00 0.00 0.00 91 1030.1
20260830220015 11 355 3.2 6.4 0.00 0.00 0.00 96 1030.0
20260830214549 11 331 3.2 8.0 0.00 0.00 0.00 98 1030.0
20260830213020 10 320 0.0 3.2 0.00 0.00 0.00 98 1030.0
20260830211606 8 355 0.0 3.2 0.00 0.00 0.00 98 1030.0
20260830210017 7 355 0.0 3.2 0.00 0.00 0.00 98 1029.9
20260830204509 7 355 0.0 1.6 0.00 0.00 0.00 97 1029.8
20260830203039 6 355 0.0 1.6 0.00 0.00 0.00 96 1029.6
20260830124515 9 277 0.0 0.0 0.00 0.00 0.00 94 1029.1
20260830123106 9 277 0.0 1.6 0.00 0.00 0.00 93 1029.2
20260830123001 9 277 0.0 1.6 0.00 0.00 0.00 93 1029.2
20260830121537 9 277 0.0 1.6 0.00 0.00 0.00 93 1029.1
20260830120059 10 277 0.0 0.0 0.00 0.00 0.00 93 1029.3
20260830120003 10 277 0.0 0.0 0.00 0.00 0.00 92 1029.3
20260830114555 10 277 0.0 0.0 0.00 0.00 0.00 92 1029.2
20260830113031 10 277 0.0 0.0 0.00 0.00 0.00 92 1029.1
20260830111513 10 277 0.0 0.0 0.00 0.00 0.00 92 1029.0
20260830110033 10 277 0.0 1.6 0.00 0.00 0.00 91 1029.0
20260830104519 11 277 0.0 1.6 0.00 0.00 0.00 90 1028.8
20260830103004 11 277 0.0 0.0 0.00 0.00 0.00 89 1028.8
20260830101542 11 277 0.0 0.0 0.00 0.00 0.00 88 1028.7
20260830100015 11 277 0.0 1.6 0.00 0.00 0.00 88 1028.5
20260830094610 12 277 0.0 0.0 0.00 0.00 0.00 87 1028.4
20260830093039 12 277 0.0 1.6 0.00 0.00 0.00 86 1028.4
20260830091523 12 277 0.0 1.6 0.00 0.00 0.00 85 1028.3
20260830090048 13 277 0.0 3.2 0.00 0.00 0.00 84 1028.3
20260830084528 13 205 0.0 1.6 0.00 0.00 0.00 83 1028.2
20260830083011 13 205 0.0 1.6 0.00 0.00 0.00 81 1028.1
20260830081553 14 205 0.0 0.0 0.00 0.00 0.00 79 1028.1
20260830080036 15 205 0.0 0.0 0.00 0.00 0.00 76 1027.8
20260830074618 16 205 0.0 0.0 0.00 0.00 0.00 74 1027.8
20260830074501 16 205 0.0 0.0 0.00 0.00 0.00 74 1027.8
20260830073041 16 205 0.0 1.6 0.00 0.00 0.00 72 1027.7
20260830071521 17 205 0.0 3.2 0.00 0.00 0.00 68 1027.5
20260830070045 18 205 1.6 4.8 0.00 0.00 0.00 66 1027.6
20260830064542 18 196 3.2 6.4 0.00 0.00 0.00 64 1027.5
20260830063013 19 193 3.2 6.4 0.00 0.00 0.00 62 1027.4
20260830061627 20 132 1.6 9.7 0.00 0.00 0.00 57 1027.5
20260830060027 21 163 1.6 9.7 0.00 0.00 0.00 57 1027.5
20260830054509 21 178 3.2 9.7 0.00 0.00 0.00 54 1027.5
20260830053045 21 184 4.8 11.3 0.00 0.00 0.00 52 1027.5
20260830051531 21 126 4.8 8.0 0.00 0.00 0.00 51 1027.5
20260830050050 21 171 3.2 6.4 0.00 0.00 0.00 51 1027.5
20260830044539 21 170 4.8 9.7 0.00 0.00 0.00 51 1027.5
20260830043019 21 138 3.2 9.7 0.00 0.00 0.00 53 1027.6
20260830041508 21 183 3.2 9.7 0.00 0.00 0.00 53 1027.6